This is the latest recevied weather packets stored in our database for station/object N5COP-13. If no packets are shown the sender has not sent any weather packets the latest 10 day(s).
| Time | Temp. | Humidity | Pressure | Rain* | Wind** | Luminosity | Snow |
|---|---|---|---|---|---|---|---|
| 1777994068 | 13.33° C | 46% | 1010.6 hPa | 0 mm | - | 451 W/m² | - |
| 1777993765 | 13.33° C | 46% | 1010.7 hPa | 0 mm | - | 295 W/m² | - |
| 1777993456 | 13.33° C | 46% | 1010.8 hPa | 0 mm | - | 402 W/m² | - |
| 1777993151 | 13.33° C | 47% | 1010.8 hPa | 0 mm | - | 408 W/m² | - |
| 1777992849 | 12.78° C | 47% | 1010.8 hPa | 0 mm | - | 351 W/m² | - |
| 1777992546 | 12.78° C | 48% | 1010.7 hPa | 0 mm | - | 257 W/m² | - |
| 1777992239 | 12.78° C | 48% | 1010.6 hPa | 0 mm | - | 226 W/m² | - |
| 1777991936 | 12.22° C | 48% | 1010.6 hPa | 0 mm | - | 281 W/m² | - |
| 1777991633 | 12.78° C | 48% | 1010.8 hPa | 0 mm | - | 227 W/m² | - |
| 1777991330 | 12.22° C | 48% | 1010.8 hPa | 0 mm | - | 249 W/m² | - |
| 1777991028 | 12.78° C | 48% | 1010.8 hPa | 0 mm | - | 222 W/m² | - |
| 1777990725 | 12.78° C | 48% | 1010.7 hPa | 0 mm | - | 322 W/m² | - |
| 1777990422 | 12.22° C | 49% | 1010.9 hPa | 0 mm | - | 348 W/m² | - |
| 1777989815 | 12.22° C | 49% | 1010.9 hPa | 0 mm | - | 210 W/m² | - |
| 1777989512 | 11.67° C | 50% | 1010.8 hPa | 0 mm | - | 280 W/m² | - |
| 1777989208 | 11.67° C | 50% | 1010.4 hPa | 0 mm | - | 183 W/m² | - |
| 1777988904 | 11.67° C | 50% | 1010.6 hPa | 0 mm | - | 245 W/m² | - |
| 1777988601 | 11.67° C | 51% | 1010.3 hPa | 0 mm | - | 147 W/m² | - |
| 1777988298 | 11.67° C | 51% | 1010.3 hPa | 0 mm | - | 194 W/m² | - |
| 1777987995 | 11.11° C | 52% | 1010.1 hPa | 0 mm | - | 147 W/m² | - |
| 1777987690 | 11.11° C | 52% | 1010.3 hPa | 0 mm | - | 93 W/m² | - |
| 1777987388 | 11.67° C | 53% | 1010.2 hPa | 0 mm | - | 109 W/m² | - |
| 1777987085 | 11.11° C | 53% | 1009.9 hPa | 0 mm | - | 126 W/m² | - |
| 1777986782 | 11.11° C | 53% | 1009.7 hPa | 0 mm | - | 91 W/m² | - |
| 1777986480 | 11.11° C | 54% | 1009.5 hPa | 0 mm | - | 87 W/m² | - |
* Rain latest hour (hover to see other rain measurements)
** Current wind speed in m/s (hover to see current wind gust speed)